{"data":{"norad_id":28380,"intl_designator":"2004-028A","name":"COSMOS 2407","alt_names":[],"object_type":"PAYLOAD","status":"ACTIVE","operator":null,"country":"CIS","launch_date":"2004-07-22","launch_site_code":"PLMSC","launch_vehicle":null,"mission":null,"orbit_class":"UNKNOWN","rcs_meters":1.849,"size_class":null,"mass_kg":null,"dimensions":null,"purposes":["nav"],"wikipedia_slug":null,"has_3d_model":false,"image_url":null,"decayed_at":null,"tle_current":{"epoch":"2026-09-19T06:36:44.922816Z","epoch_age_seconds":120324,"freshness":"FRESH","line1":"1 28380U 04028A   26262.27551994  .00000048  00000+0  33216-4 0  9995","line2":"2 28380  82.9650   5.1404 0038876 351.2478  37.2111 13.76340577112821","mean_motion":13.76340577,"eccentricity":0.0038876,"inclination_deg":82.965,"raan_deg":5.1404,"arg_perigee_deg":351.2478,"mean_anomaly_deg":37.2111,"bstar":3.3216e-5,"rev_number":11282,"period_min":104.62526674457,"perigee_km":948.30155809417,"apogee_km":1005.4884027483,"semimajor_km":7355.0319804213,"source":"CELESTRAK","updated_at":"2026-09-20T09:00:46.994993Z"}}}